Back to catalog

STARLINK-31517

AliveCommunicationsVLEO
NORAD 59213·PAYLOAD·🇺🇸 United States

Launched Mar 11, 2024 from Vandenberg Space Force Base

Loading…

Next Passes (next 24 hours)

TLE

FreshSource: CelesTrak SupGP

Epoch: Sep 14, 2026, 14:46 UTC

1 59213C 24046N   26257.61576389 -.00072850  00000+0 -21537-2 0  2573
2 59213  53.1600 353.5759 0001239  84.6626 321.3456 15.34407818    17

Track STARLINK-31517 in real time with AllMySat

Download on the App Store